Regional Weather Roundup
Issued by NWS

Home | Current Version | Previous Version | Text Only | Print | Product List | Glossary On
Versions: 1 2 3 4 5 6 7 8 9 10 11 12 13 14 15 16 17 18 19 20 21 22 23 24 25 26 27 28 29 30 31 32 33 34 35 36 37 38 39 40 41 42 43 44 45 46 47 48 49 50
000
ASUS43 KMKX 270521
RWRWI

WISCONSIN REGIONAL WEATHER ROUNDUP
NATIONAL WEATHER SERVICE MILWAUKEE/SULLIVAN WI
1200 AM CDT WED JUL 27 2016

NOTE: "FAIR" INDICATES FEW OR NO CLOUDS BELOW 12,000 FEET WITH NO
SIGNIFICANT WEATHER AND/OR OBSTRUCTIONS TO VISIBILITY.

WIZ001-002-006>008-014>016-023>028-270600-
NORTHWEST WISCONSIN

CITY           SKY/WX    TMP DP  RH WIND       PRES   REMARKS
SUPERIOR ARPT  CLOUDY    68  65  88 CALM      29.95S
ASHLAND        CLOUDY    73  68  84 SW7       29.98R
HAYWARD        MOCLDY    68  66  93 CALM      30.00F
SIREN          PTCLDY    70  63  78 CALM      30.00S
CUMBERLAND     PTCLDY    68  63  83 CALM      30.01R
RICE LAKE      PTCLDY    69  64  85 CALM      30.02R
CHETEK         PTCLDY    71  66  83 CALM      30.01R
LADYSMITH      MOCLDY    70  62  77 N3        30.04R
EAU CLAIRE     PTCLDY    74  68  81 VRB6      30.00R
MENOMONIE      PTCLDY    74  68  80 SW5       30.00S
NEW RICHMOND   MOCLDY    69  62  78 CALM      30.01S
OSCEOLA        CLOUDY    69  63  82 SE3       30.01F
$$

WIZ003>005-009-010-017-018-270600-
NORTH CENTRAL WISCONSIN

CITY           SKY/WX    TMP DP  RH WIND       PRES   REMARKS
MANITOWISH WTR CLOUDY    65  65 100 CALM      30.00R FOG
ARBOR VITAE    CLOUDY    67  64  91 CALM      30.01R
WOODRUFF       CLOUDY    67  64  91 CALM      30.01R
RHINELANDER    CLOUDY    69  63  81 CALM      30.01S
EAGLE RIVER    FOG       63  63 100 CALM      30.00S VSB 1/2
LAND O LAKES   CLOUDY    62  62  99 CALM      30.01S FOG
PHILLIPS       TSTM      65  64  95 CALM      30.04R
TOMAHAWK       PTCLDY    65  63  92 CALM      30.01R
MEDFORD        PTCLDY    71  69  93 SW6       30.01R
MERRILL        PTCLDY    71  67  89 W3        30.00S
$$

WIZ029-030-035-036-043>047-270600-
CENTRAL WISCONSIN

CITY           SKY/WX    TMP DP  RH WIND       PRES   REMARKS
WAUSAU         PTCLDY    75  67  76 W3        29.98S
MOSINEE        MOCLDY    72  68  88 SW6       30.01S
MARSHFIELD     CLEAR     72  66  81 W6        30.01S
STEVENS POINT  CLEAR     71  66  84 SW5       30.01S
WAUPACA        CLEAR     73  70  88 CALM      30.00R
WAUTOMA        CLEAR     69  68  96 CALM      30.01R
WISC RAPIDS    CLEAR     73  65  75 SW6       30.01S
CAMP DOUGLAS   PTCLDY    64  64 100 W2        30.00F FOG
$$

WIZ011>013-019>022-031-037>040-048>050-270600-
NORTHEAST WISCONSIN

CITY           SKY/WX    TMP DP  RH WIND       PRES   REMARKS
ANTIGO         CLEAR     70  66  88 CALM      30.01S
SHAWANO        CLEAR     77  68  73 SW5       29.97S
OCONTO         CLEAR     74  72  93 SW5       29.94S
STURGEON BAY   CLEAR     75  32  20 SW8       29.95F
GREEN BAY      CLEAR     74  70  87 SW6       29.97S
MANITOWOC      CLEAR     73  65  75 MISG      29.98S
APPLETON       CLEAR     73  63  68 SW6       29.98S
CLINTONVILLE   CLEAR     72  64  78 SW5       29.98S
OSHKOSH        CLEAR     74  65  73 SW3       29.99S
$$

WIZ032>034-041-042-053>061-270600-
SOUTHWEST WISCONSIN

CITY           SKY/WX    TMP DP  RH WIND       PRES   REMARKS
LA CROSSE      CLEAR     77  70  79 CALM      29.99S
SPARTA         PTCLDY    67  65  96 CALM      30.02S
VIROQUA        CLEAR     70  67  89 S5        30.04S
BOSCOBEL       CLEAR     67  66  97 CALM      30.01F FOG
PRAIRIE DU CHI CLEAR     69  65  89 CALM      30.01S
PLATTEVILLE    CLEAR     69  68  98 CALM      30.03S
$$

WIZ056-057-062-063-064-067-068-270600-
SOUTH CENTRAL WISCONSIN

CITY           SKY/WX    TMP DP  RH WIND       PRES   REMARKS
REEDSBURG      CLEAR     70  69  96 CALM      30.01S
BARABOO/DELLS  CLEAR     69  63  81 CALM      30.02S
LONE ROCK      CLEAR     68  65  90 CALM      30.02S
MINERAL POINT  CLEAR     72  68  88 SW3       30.03F
MADISON        CLEAR     71  67  87 CALM      30.01S
MIDDLETON      CLEAR     67  67  99 CALM      30.02S
WATERTOWN      CLEAR     68  68  99 CALM      30.01S
MONROE         CLEAR     72  64  78 W6        30.03S
JANESVILLE     CLEAR     72  66  83 CALM      30.01S
$$

WIZ051-052-058>065-066-070>072-270600-
SOUTHEAST WISCONSIN

CITY           SKY/WX    TMP DP  RH WIND       PRES   REMARKS
MILWAUKEE      CLEAR     75  63  66 SW5       30.00F
WAUKESHA       CLEAR     70  61  73 CALM      30.02F
MILWAUKEE/TIMM CLEAR     70  59  68 S6        30.01F
RACINE         CLEAR     72  64  76 CALM      30.02F
BURLINGTON     CLEAR     65  64  96 CALM      30.02S
KENOSHA        CLEAR     71  63  75 CALM      30.02S
FOND DU LAC    CLEAR     72  66  81 SW5       30.00S
SHEBOYGAN      CLEAR     66  63  90 SW3       29.99S
WEST BEND      CLEAR     70  63  78 CALM      30.01S
JUNEAU         CLEAR     68  66  92 CALM      30.02S
$$

LSZ147-162-270600-
LAKE SUPERIOR

STATION/POSITION TIME  TEMP    WIND        PRES    WAVE
                       AIR SEA DIR/SP/G            HT/PER
                 (UTC) (F)     (DEG/KT/KT) (MB)    (FT/S)
W MID LAKE BUOY  0450   65 62  340/  8/ 10 1013.3R   1
DEVILS ISLAND    0500   69     250/  7/  8 1014.2R
PORT WING        0400   74     190/  4/  8 1014.6R
SAXON HARBOR     0400   72     200/  5/  7 1013.9R
$$

LMZ867-665-643>646-270600-
LAKE MICHIGAN

STATION/POSITION TIME  TEMP    WIND        PRES    WAVE
                       AIR SEA DIR/SP/G            HT/PER
                 (UTC) (F)     (DEG/KT/KT) (MB)    (FT/S)
CHAMBERS ISLAND  0400   77     200/  8/ 12 1013.2F
S GREEN BAY BUOY 0500   77 74  220/ 12/ 14   N/A
N MID LAKE BUOY  0450   72 69  220/ 14/ 17 1011.9F   3/ 4
NORTHPORT PIER   0400   77     190/  3/  6 1013.2F
SISTER BAY       0421   80     240/ 13/ 15   N/A
ALGOMA LAKESHORE 0413             CALM       N/A
KEWAUNEE LAKESHO 0400   77     230/  7/ 11 1014.3
SHEBOYGAN LAKESH 0500   74     250/  5/  6 1015.5R
PORT WASHINGTON  0440   68     220/  1/  2 1016.3F
ATWATER BUOY     0500   66 59  170/  6/  6 1017.4F
MILWAUKEE LAKESH 0410   74     190/  5/  6   N/A
S MID LAKE BUOY  0450   75 76  200/  6/  6 1015.7R   0
KENOSHA   LAKESH 0500   76     250/  2/  5 1015.9S
$$

TC  - TEMPERATURE IN CELSIUS
VSB - VISIBILITY IN STATUTE MILES
WCI - WIND CHILL INDEX
HX  - HEAT INDEX





USA.gov is the U.S. government's official web portal to all federal, state and local government web resources and services.